FW7413 Weather Reports


time (UTC)temp
F
wind
direction
speed
knots
gust
knots
rain 1hr
in
rain 24hr
in
rain mn
in
humidity
%
barometer
mb
20260507032751 52 140 0.0 0.0 0.00 0.00 0.00 58 1019.5
20260507032247 52 140 0.0 0.0 0.00 0.00 0.00 58 1019.3
20260507031744 52 140 0.0 0.0 0.00 0.00 0.00 57 1019.2
20260507031241 53 140 0.0 0.0 0.00 0.00 0.00 57 1019.2
20260507030737 53 140 0.0 0.0 0.00 0.00 0.00 57 1019.0
20260507030235 53 139 0.0 0.0 0.00 0.00 0.00 56 1019.1
20260507025732 53 138 0.0 0.0 0.00 0.00 0.00 55 1018.8
20260507025229 54 134 0.0 0.0 0.00 0.00 0.00 55 1018.8
20260507024727 54 133 0.0 0.0 0.00 0.00 0.00 54 1018.8
20260507024224 55 128 0.0 0.0 0.00 0.00 0.00 53 1018.5
20260507023720 55 112 0.0 0.9 0.00 0.00 0.00 53 1018.6
20260507023217 55 125 0.0 0.0 0.00 0.00 0.00 52 1018.6
20260507022714 56 96 0.0 0.0 0.00 0.00 0.00 52 1018.7
20260507022210 56 104 0.0 0.0 0.00 0.00 0.00 51 1018.4
20260507021706 56 130 0.0 0.9 0.00 0.00 0.00 51 1018.4
20260507021201 57 128 0.9 0.9 0.00 0.00 0.00 50 1018.4
20260507020701 57 103 0.9 0.9 0.00 0.00 0.00 50 1018.3
20260507020156 57 110 0.0 0.0 0.00 0.00 0.00 49 1018.4
20260507015654 57 122 0.0 0.0 0.00 0.00 0.00 49 1018.1
20260507015151 58 50 0.9 0.9 0.00 0.00 0.00 48 1018.3
20260507014648 58 96 0.0 0.9 0.00 0.00 0.00 48 1018.0
20260507014144 59 76 2.6 2.6 0.00 0.00 0.00 47 1018.0
20260507013641 59 80 0.0 0.9 0.00 0.00 0.00 47 1017.9
20260507013138 59 107 0.0 0.9 0.00 0.00 0.00 46 1018.0
20260507012636 59 87 0.9 1.7 0.00 0.00 0.00 46 1017.6
20260507012130 60 58 1.7 2.6 0.00 0.00 0.00 45 1017.8
20260507011629 60 81 0.9 0.9 0.00 0.00 0.00 45 1017.4
20260507011125 60 34 2.6 4.3 0.00 0.00 0.00 44 1017.5
20260507010620 61 40 1.7 1.7 0.00 0.00 0.00 44 1017.6
20260507010116 61 8 4.3 5.2 0.00 0.00 0.00 44 1017.4
20260507005614 61 88 0.0 0.9 0.00 0.00 0.00 44 1017.4
20260507005110 61 90 1.7 1.7 0.00 0.00 0.00 43 1017.7
20260507004607 62 83 1.7 2.6 0.00 0.00 0.00 44 1017.6
20260507004104 62 98 0.9 0.9 0.00 0.00 0.00 44 1017.5
20260507003600 62 31 3.5 5.2 0.00 0.00 0.00 44 1017.4
20260507003055 62 115 1.7 2.6 0.00 0.00 0.00 44 1017.3
20260507002552 63 44 3.5 5.2 0.00 0.00 0.00 43 1017.5
20260507002048 63 107 1.7 1.7 0.00 0.00 0.00 43 1017.5
20260507001545 63 320 3.5 6.1 0.00 0.00 0.00 43 1017.4
20260507001042 63 331 3.5 5.2 0.00 0.00 0.00 43 1017.4
20260507000538 64 88 4.3 5.2 0.00 0.00 0.00 42 1017.3
20260507000034 65 66 2.6 2.6 0.00 0.00 0.00 41 1017.0
20260506235532 65 120 1.7 1.7 0.00 0.00 0.00 41 1017.3
20260506235027 64 63 2.6 5.2 0.00 0.00 0.00 41 1016.9
20260506234525 64 79 3.5 5.2 0.00 0.00 0.00 41 1016.9
20260506234022 65 38 4.3 5.2 0.00 0.00 0.00 41 1016.8
20260506233518 65 17 4.3 5.2 0.00 0.00 0.00 41 1016.9
20260506233015 65 65 2.6 4.3 0.00 0.00 0.00 40 1016.8
20260506232511 65 19 3.5 5.2 0.00 0.00 0.00 41 1016.7
20260506232007 64 55 3.5 4.3 0.00 0.00 0.00 41 1016.7
20260506231504 66 72 0.9 0.9 0.00 0.00 0.00 40 1016.7
20260506230956 65 45 3.5 4.3 0.00 0.00 0.00 41 1016.6
20260506230452 66 49 1.7 2.6 0.00 0.00 0.00 40 1016.5
20260506225949 65 89 2.6 4.3 0.00 0.00 0.00 41 1016.6
20260506225446 66 62 2.6 2.6 0.00 0.00 0.00 40 1016.5
20260506224943 66 260 5.2 7.0 0.00 0.00 0.00 41 1016.5
20260506224440 66 104 3.5 4.3 0.00 0.00 0.00 40 1016.3
20260506223936 66 51 4.3 5.2 0.00 0.00 0.00 40 1016.6
20260506223432 66 127 2.6 4.3 0.00 0.00 0.00 41 1016.2
20260506222930 66 100 4.3 5.2 0.00 0.00 0.00 40 1016.3
20260506222426 65 51 3.5 5.2 0.00 0.00 0.00 42 1016.1
20260506221923 66 104 0.9 1.7 0.00 0.00 0.00 42 1016.2
20260506221420 65 285 2.6 2.6 0.00 0.00 0.00 42 1016.0
20260506220918 65 65 1.7 1.7 0.00 0.00 0.00 40 1015.9
20260506220413 65 40 5.2 6.1 0.00 0.00 0.00 40 1015.9
20260506215909 66 128 1.7 2.6 0.00 0.00 0.00 41 1016.1
20260506215406 65 56 1.7 2.6 0.00 0.00 0.00 41 1016.1
20260506214856 65 65 1.7 4.3 0.00 0.00 0.00 41 1016.0
20260506214353 66 77 1.7 2.6 0.00 0.00 0.00 42 1016.2
20260506213851 66 20 3.5 5.2 0.00 0.00 0.00 41 1016.2
20260506213348 66 130 1.7 1.7 0.00 0.00 0.00 41 1016.0
20260506212846 66 89 0.9 0.9 0.00 0.00 0.00 41 1016.1
20260506212341 64 63 2.6 2.6 0.00 0.00 0.00 44 1016.4
20260506211836 64 31 4.3 7.0 0.00 0.00 0.00 43 1016.4
20260506211332 64 100 1.7 2.6 0.00 0.00 0.00 44 1016.4
20260506210830 65 67 3.5 5.2 0.00 0.00 0.00 44 1016.4
20260506210327 65 72 2.6 2.6 0.00 0.00 0.00 44 1016.8
20260506205824 65 52 4.3 6.1 0.00 0.00 0.00 45 1016.7
20260506205320 64 302 4.3 7.0 0.00 0.00 0.00 46 1016.6
20260506204817 63 57 5.2 7.0 0.00 0.00 0.00 45 1016.6
20260506204314 63 54 0.9 1.7 0.00 0.00 0.00 45 1017.0
20260506203812 65 41 4.3 5.2 0.00 0.00 0.00 44 1016.7
20260506203309 65 46 3.5 5.2 0.00 0.00 0.00 44 1016.8
20260506202806 65 84 3.5 4.3 0.00 0.00 0.00 45 1016.8
20260506202305 64 88 2.6 2.6 0.00 0.00 0.00 47 1017.0
20260506201753 64 61 2.6 4.3 0.00 0.00 0.00 45 1016.9
20260506201250 63 59 0.9 1.7 0.00 0.00 0.00 47 1017.2
20260506200747 63 55 0.9 1.7 0.00 0.00 0.00 46 1017.0
20260506200243 64 56 2.6 4.3 0.00 0.00 0.00 47 1017.3
20260506195740 63 3 5.2 6.1 0.00 0.00 0.00 46 1017.0
20260506195236 63 20 4.3 6.1 0.00 0.00 0.00 47 1017.0
20260506194734 63 71 0.0 1.7 0.00 0.00 0.00 49 1017.3
20260506194230 62 55 6.1 7.0 0.00 0.00 0.00 48 1017.2
20260506193728 62 71 1.7 1.7 0.00 0.00 0.00 49 1017.5
20260506193224 61 85 0.0 0.9 0.00 0.00 0.00 49 1017.2
20260506192721 61 33 4.3 5.2 0.00 0.00 0.00 50 1017.4
20260506192218 61 73 1.7 2.6 0.00 0.00 0.00 51 1017.7
20260506191715 61 348 3.5 4.3 0.00 0.00 0.00 49 1017.7
20260506191210 61 44 1.7 2.6 0.00 0.00 0.00 50 1017.5
20260506190708 61 42 1.7 2.6 0.00 0.00 0.00 49 1017.7
20260506190204 60 65 1.7 1.7 0.00 0.00 0.00 49 1017.6
20260506185702 60 77 1.7 2.6 0.00 0.00 0.00 49 1017.6
20260506185158 61 20 3.5 4.3 0.00 0.00 0.00 48 1017.8
20260506184656 61 118 1.7 5.2 0.00 0.00 0.00 48 1017.8
20260506184153 61 151 0.9 1.7 0.00 0.00 0.00 50 1017.6
20260506183650 62 63 2.6 4.3 0.00 0.00 0.00 48 1017.7
20260506183145 61 90 0.9 2.6 0.00 0.00 0.00 48 1017.9
20260506182643 61 65 4.3 6.1 0.00 0.00 0.00 48 1017.9
20260506182140 61 93 1.7 2.6 0.00 0.00 0.00 49 1017.7
20260506181638 61 28 2.6 2.6 0.00 0.00 0.00 50 1018.1
20260506181134 61 70 1.7 1.7 0.00 0.00 0.00 49 1018.0
20260506180631 60 306 2.6 5.2 0.00 0.00 0.00 50 1018.2
20260506180128 60 133 0.9 2.6 0.00 0.00 0.00 50 1018.3
20260506175624 60 122 1.7 4.3 0.00 0.00 0.00 50 1018.3
20260506175120 61 25 4.3 6.1 0.00 0.00 0.00 48 1018.1
20260506174619 61 156 0.9 0.9 0.00 0.00 0.00 51 1018.0
20260506174115 62 138 0.9 1.7 0.00 0.00 0.00 49 1018.2
20260506173613 60 155 0.0 0.9 0.00 0.00 0.00 52 1018.3
20260506173109 60 59 1.7 1.7 0.00 0.00 0.00 49 1018.0
20260506172608 59 71 1.7 1.7 0.00 0.00 0.00 53 1018.5
20260506172103 59 98 3.5 4.3 0.00 0.00 0.00 51 1018.6
20260506171601 58 63 2.6 2.6 0.00 0.00 0.00 51 1018.3
20260506171058 59 80 2.6 4.3 0.00 0.00 0.00 50 1018.4
20260506170556 58 77 1.7 2.6 0.00 0.00 0.00 52 1018.3
20260506170053 59 33 2.6 5.2 0.00 0.00 0.00 50 1018.4
20260506165552 58 42 4.3 8.7 0.00 0.00 0.00 51 1018.4
20260506165047 59 4 6.1 9.6 0.00 0.00 0.00 50 1018.3
20260506164545 59 5 6.1 7.8 0.00 0.00 0.00 49 1018.3
20260506164042 60 144 4.3 7.0 0.00 0.00 0.00 47 1018.6
20260506163537 60 14 1.7 5.2 0.00 0.00 0.00 49 1018.4
20260506163033 59 128 1.7 2.6 0.00 0.00 0.00 50 1018.3
20260506162530 59 109 2.6 6.1 0.00 0.00 0.00 50 1018.6
20260506162027 59 102 4.3 7.8 0.00 0.00 0.00 50 1018.5
20260506161525 59 128 0.9 2.6 0.00 0.00 0.00 50 1018.7
20260506161021 59 157 3.5 6.1 0.00 0.00 0.00 50 1018.5
20260506160519 57 43 0.9 1.7 0.00 0.00 0.00 54 1018.3
20260506160017 57 18 3.5 6.1 0.00 0.00 0.00 53 1018.4
20260506155515 56 0 2.6 5.2 0.00 0.00 0.00 53 1018.4
20260506153652 55 38 4.3 6.1 0.00 0.00 0.00 56 1017.9
20260506153149 54 120 4.3 7.0 0.00 0.00 0.00 56 1018.1
20260506152646 54 117 7.0 8.7 0.00 0.00 0.00 55 1018.1
20260506152143 54 29 3.5 4.3 0.00 0.00 0.00 57 1018.1
20260506151642 54 10 4.3 5.2 0.00 0.00 0.00 57 1018.1
20260506151138 54 58 2.6 4.3 0.00 0.00 0.00 59 1018.3
20260506150635 53 87 3.5 4.3 0.00 0.00 0.00 61 1018.2
20260506150132 53 1 6.1 7.8 0.00 0.00 0.00 61 1018.2
20260506145629 53 51 4.3 7.0 0.00 0.00 0.00 61 1018.0
20260506145126 52 109 1.7 1.7 0.00 0.00 0.00 64 1018.2
20260506144623 52 16 7.0 11.3 0.00 0.00 0.00 63 1018.2
20260506144120 52 53 0.9 1.7 0.00 0.00 0.00 65 1018.2
20260506143618 51 21 6.1 7.8 0.00 0.00 0.00 66 1017.7
20260506143115 51 65 2.6 4.3 0.00 0.00 0.00 67 1017.6
20260506142614 51 27 2.6 2.6 0.00 0.00 0.00 68 1017.8
20260506142112 51 34 1.7 4.3 0.00 0.00 0.00 67 1017.6
20260506141608 50 51 1.7 1.7 0.00 0.00 0.00 68 1017.8
20260506141107 50 69 0.9 0.9 0.00 0.00 0.00 69 1017.7
20260506140604 50 13 4.3 5.2 0.00 0.00 0.00 69 1017.8
20260506135558 50 68 2.6 4.3 0.00 0.00 0.00 70 1017.8
20260506135054 50 102 2.6 2.6 0.00 0.00 0.00 70 1017.7
20260506134551 49 42 1.7 4.3 0.00 0.00 0.00 71 1017.6
20260506134046 49 69 2.6 5.2 0.00 0.00 0.00 71 1017.9
20260506133544 49 38 3.5 4.3 0.00 0.00 0.00 71 1018.1
20260506133041 49 57 3.5 4.3 0.00 0.00 0.00 72 1017.9
20260506132538 49 53 5.2 7.0 0.00 0.00 0.00 72 1017.9
20260506132035 49 2 7.0 9.6 0.00 0.00 0.00 72 1018.2
20260506131532 49 137 0.0 0.9 0.00 0.00 0.00 73 1018.4
20260506131029 49 18 2.6 7.0 0.00 0.00 0.00 73 1018.3
20260506130526 49 61 2.6 5.2 0.00 0.00 0.00 73 1018.2
20260506130023 49 61 2.6 5.2 0.00 0.00 0.00 73 1017.9
20260506125521 49 50 3.5 6.1 0.00 0.00 0.00 73 1017.6
20260506125019 49 72 2.6 4.3 0.00 0.00 0.00 72 1017.8
20260506124516 49 64 2.6 5.2 0.00 0.00 0.00 73 1017.9
20260506124014 49 37 1.7 1.7 0.00 0.00 0.00 73 1017.7
20260506123512 48 53 1.7 1.7 0.00 0.00 0.00 73 1017.7
20260506123010 48 102 1.7 2.6 0.00 0.00 0.00 73 1017.4
20260506122506 48 47 6.1 7.0 0.00 0.00 0.00 74 1017.0
20260506122004 48 28 2.6 4.3 0.00 0.00 0.00 74 1017.0
20260506121501 48 58 1.7 2.6 0.00 0.00 0.00 74 1017.0
20260506120958 48 123 1.7 2.6 0.00 0.00 0.00 74 1016.5
20260506120456 48 40 1.7 2.6 0.00 0.00 0.00 74 1016.7
20260506115953 48 58 1.7 2.6 0.00 0.00 0.00 74 1016.5
20260506115451 48 56 3.5 4.3 0.00 0.00 0.00 74 1016.2
20260506114949 48 80 0.9 2.6 0.00 0.00 0.00 74 1016.6
20260506114446 48 64 1.7 2.6 0.00 0.00 0.00 74 1016.6
20260506113944 48 53 0.9 1.7 0.00 0.00 0.00 74 1016.7
20260506113442 48 54 2.6 2.6 0.00 0.00 0.00 74 1016.4
20260506112938 48 83 1.7 2.6 0.00 0.00 0.00 74 1016.3
20260506112436 48 52 1.7 1.7 0.00 0.00 0.00 74 1016.7
20260506111933 48 33 2.6 2.6 0.00 0.00 0.00 74 1016.2
20260506111431 48 107 1.7 1.7 0.00 0.00 0.00 74 1016.0
20260506110928 48 31 4.3 7.0 0.00 0.00 0.00 74 1016.2
20260506110426 48 36 0.9 0.9 0.00 0.00 0.00 73 1016.2
20260506105922 48 40 2.6 2.6 0.00 0.00 0.00 73 1015.9
20260506105418 48 81 0.0 0.9 0.00 0.00 0.00 73 1016.2
20260506104910 48 56 0.9 1.7 0.00 0.00 0.00 72 1016.2
20260506104408 48 347 1.7 4.3 0.00 0.00 0.00 72 1016.3
20260506103906 48 54 1.7 2.6 0.00 0.00 0.00 72 1016.7
20260506103403 48 88 0.9 1.7 0.00 0.00 0.00 72 1016.9
20260506102900 48 84 1.7 2.6 0.00 0.00 0.00 72 1017.2
20260506102358 48 73 0.0 0.9 0.00 0.00 0.00 71 1017.0
20260506101854 49 15 2.6 2.6 0.00 0.00 0.00 71 1016.5
20260506101350 49 56 0.9 1.7 0.00 0.00 0.00 71 1016.5
20260506100848 49 59 2.6 4.3 0.00 0.00 0.00 71 1016.7
20260506100347 49 41 1.7 1.7 0.00 0.00 0.00 71 1016.6
20260506095844 49 111 0.9 0.9 0.00 0.00 0.00 70 1016.6
20260506095342 49 72 1.7 1.7 0.00 0.00 0.00 70 1016.3
20260506094838 49 36 0.9 1.7 0.00 0.00 0.00 71 1016.3
20260506094337 49 49 0.9 1.7 0.00 0.00 0.00 71 1016.3
20260506093835 49 112 1.7 1.7 0.00 0.00 0.00 70 1016.2
20260506093332 49 89 0.0 0.9 0.00 0.00 0.00 70 1015.8
20260506092829 49 87 0.0 0.9 0.00 0.00 0.00 70 1015.9
20260506092327 49 18 0.9 2.6 0.00 0.00 0.00 70 1015.5
20260506091824 49 350 1.7 4.3 0.00 0.00 0.00 69 1015.2
20260506091322 49 93 0.9 1.7 0.00 0.00 0.00 69 1015.3
20260506090819 49 98 3.5 6.1 0.00 0.00 0.00 69 1015.4
20260506090316 49 81 0.9 2.6 0.00 0.00 0.00 69 1015.5
20260506085813 49 91 4.3 5.2 0.00 0.00 0.00 69 1015.3
20260506085309 49 106 0.9 1.7 0.00 0.00 0.00 68 1015.2
20260506084806 49 84 0.9 1.7 0.00 0.00 0.00 67 1015.2
20260506084302 49 63 1.7 2.6 0.00 0.00 0.00 67 1015.3
20260506083759 49 25 2.6 4.3 0.00 0.00 0.00 67 1015.1
20260506083257 48 358 2.6 4.3 0.00 0.00 0.00 67 1014.9
20260506082754 48 53 1.7 2.6 0.00 0.00 0.00 67 1014.9
20260506082249 49 57 2.6 4.3 0.00 0.00 0.00 67 1014.9
20260506081747 49 29 2.6 2.6 0.00 0.00 0.00 66 1014.5
20260506081244 49 4 0.9 2.6 0.00 0.00 0.00 66 1014.5
20260506080743 49 327 2.6 5.2 0.00 0.00 0.00 67 1014.6
20260506080239 49 51 3.5 5.2 0.00 0.00 0.00 66 1014.6
20260506073223 49 32 2.6 5.2 0.00 0.00 0.00 66 1014.2
20260506072719 49 97 1.7 2.6 0.00 0.00 0.00 66 1014.3
20260506072217 49 52 4.3 7.8 0.00 0.00 0.00 66 1013.9
20260506071714 49 53 2.6 4.3 0.00 0.00 0.00 66 1013.7
20260506071212 49 73 0.9 1.7 0.00 0.00 0.00 66 1013.7
20260506070709 49 72 0.9 1.7 0.00 0.00 0.00 66 1013.6
20260506070206 49 75 0.9 0.9 0.00 0.00 0.00 66 1013.7
20260506062143 49 62 1.7 1.7 0.00 0.00 0.00 66 1014.2
20260506061639 49 65 0.0 0.0 0.00 0.00 0.00 65 1013.8
20260506061137 49 71 0.9 1.7 0.00 0.00 0.00 65 1014.2
20260506060635 49 79 0.9 1.7 0.00 0.00 0.00 64 1013.9
20260506060132 49 71 1.7 2.6 0.00 0.00 0.00 64 1013.8
20260506051103 50 138 0.9 0.9 0.00 0.00 0.00 63 1014.0
20260506050602 50 69 0.9 0.9 0.00 0.00 0.00 63 1013.8
20260506045052 50 32 3.5 6.1 0.00 0.00 0.00 63 1013.7
20260506044550 50 43 6.1 7.8 0.00 0.00 0.00 63 1013.7
20260506044046 50 27 4.3 6.1 0.00 0.00 0.00 63 1013.9
20260506043543 50 46 2.6 4.3 0.00 0.00 0.00 64 1013.9
20260506043042 50 103 2.6 5.2 0.00 0.00 0.00 64 1013.9
20260506042541 50 41 3.5 5.2 0.00 0.00 0.00 64 1014.0
20260506042038 50 67 1.7 2.6 0.00 0.00 0.00 64 1013.9
20260506041537 50 84 1.7 2.6 0.00 0.00 0.00 64 1014.0
20260506041033 50 70 0.9 1.7 0.00 0.00 0.00 65 1013.9
20260506040531 50 35 4.3 5.2 0.00 0.00 0.00 64 1013.7
20260506040026 49 33 6.1 9.6 0.00 0.00 0.00 65 1013.9
20260506035524 49 53 0.9 4.3 0.00 0.00 0.00 66 1013.6
20260506035020 49 114 3.5 5.2 0.00 0.00 0.00 66 1013.8
20260506034518 49 25 5.2 7.0 0.00 0.00 0.00 67 1013.8
20260506034015 49 22 4.3 7.0 0.00 0.00 0.00 68 1013.5
20260506033512 49 28 5.2 6.1 0.00 0.00 0.00 68 1013.7
20260506033009 49 78 2.6 2.6 0.00 0.00 0.00 70 1013.6